Wetterdaten: Dienstag, 28.07.2015
Datum Zeit Temp. A. Mod.Schuppen Waschkche Feuchte A. Luftdruck Regen Wind Richtung Richtung Sonnenschein Helligkeit Solar
28.07.2015 00:05 16,4 C 15,3 C 19,3 C 64 % 1003,8 hPa 0,0 l/m 34,2 km/h (5 Bft) W-SW45 250 0 min 0 lux 0 W/m
28.07.2015 00:10 16,5 C 15,7 C 19,2 C 62 % 1003,8 hPa 0,0 l/m 39,1 km/h (6 Bft) W-SW45 255 0 min 0 lux 0 W/m
28.07.2015 00:15 16,5 C 15,8 C 19,2 C 62 % 1003,8 hPa 0,0 l/m 32,3 km/h (5 Bft) W-SW45 250 0 min 0 lux 0 W/m
28.07.2015 00:20 16,5 C 15,8 C 19,2 C 62 % 1003,8 hPa 0,0 l/m 35,1 km/h (5 Bft) W-SW45 255 0 min 0 lux 0 W/m
28.07.2015 00:25 16,4 C 15,7 C 19,2 C 63 % 1003,8 hPa 0,0 l/m 33,2 km/h (5 Bft) W-SW22.5 250 0 min 0 lux 0 W/m
28.07.2015 00:29 16,4 C 15,7 C 19,2 C 63 % 1003,8 hPa 0,0 l/m 37,1 km/h (5 Bft) W-SW22.5 250 0 min 0 lux 0 W/m
28.07.2015 00:35 16,3 C 15,6 C 19,1 C 64 % 1003,8 hPa 0,0 l/m 33,4 km/h (5 Bft) W-SW22.5 245 0 min 0 lux 0 W/m
28.07.2015 00:40 16,2 C 15,5 C 19,1 C 65 % 1003,8 hPa 0,0 l/m 34,8 km/h (5 Bft) SW45 235 0 min 0 lux 0 W/m
28.07.2015 00:45 16,1 C 15,3 C 19,1 C 65 % 1003,8 hPa 0,0 l/m 29,4 km/h (5 Bft) W-SW22.5 245 0 min 0 lux 0 W/m
28.07.2015 00:50 16,0 C 15,2 C 19,1 C 65 % 1003,9 hPa 0,0 l/m 32,0 km/h (5 Bft) SW45 230 0 min 0 lux 0 W/m
28.07.2015 00:55 16,0 C 15,1 C 19,1 C 65 % 1003,9 hPa 0,0 l/m 31,9 km/h (5 Bft) SW45 225 0 min 0 lux 0 W/m
28.07.2015 01:00 15,9 C 15,0 C 19,1 C 66 % 1003,9 hPa 0,0 l/m 34,5 km/h (5 Bft) W-SW22.5 250 0 min 0 lux 0 W/m
28.07.2015 01:05 15,8 C 14,6 C 19,0 C 66 % 1003,9 hPa 0,0 l/m 28,1 km/h (5 Bft) W-SW45 240 0 min 0 lux 0 W/m
28.07.2015 01:10 15,6 C 14,5 C 19,0 C 67 % 1003,9 hPa 0,0 l/m 28,1 km/h (5 Bft) W-SW45 240 0 min 0 lux 0 W/m
28.07.2015 01:15 15,7 C 14,7 C 19,0 C 66 % 1003,9 hPa 0,0 l/m 20,0 km/h (4 Bft) SW45 235 0 min 0 lux 0 W/m
28.07.2015 01:20 15,7 C 14,8 C 19,0 C 66 % 1003,9 hPa 0,0 l/m 22,6 km/h (4 Bft) SW45 220 0 min 0 lux 0 W/m
28.07.2015 01:25 15,6 C 14,7 C 19,0 C 67 % 1003,9 hPa 0,0 l/m 23,0 km/h (4 Bft) SW45 225 0 min 0 lux 0 W/m
28.07.2015 01:30 15,5 C 14,6 C 19,0 C 67 % 1003,9 hPa 0,0 l/m 29,3 km/h (5 Bft) SW45 230 0 min 0 lux 0 W/m
28.07.2015 01:34 15,5 C 14,6 C 19,0 C 67 % 1003,9 hPa 0,0 l/m 30,0 km/h (5 Bft) SW22.5 230 0 min 0 lux 0 W/m
28.07.2015 01:39 15,4 C 14,5 C 19,0 C 66 % 1003,9 hPa 0,0 l/m 33,7 km/h (5 Bft) SW45 230 0 min 0 lux 0 W/m
28.07.2015 01:45 15,4 C 14,4 C 19,0 C 66 % 1003,9 hPa 0,0 l/m 31,2 km/h (5 Bft) SW22.5 225 0 min 0 lux 0 W/m
28.07.2015 01:50 15,3 C 14,1 C 19,0 C 66 % 1003,9 hPa 0,0 l/m 25,8 km/h (4 Bft) SW22.5 225 0 min 0 lux 0 W/m
28.07.2015 01:55 15,2 C 14,0 C 19,0 C 67 % 1003,9 hPa 0,0 l/m 22,0 km/h (4 Bft) SW45 220 0 min 0 lux 0 W/m
28.07.2015 02:00 15,1 C 13,5 C 19,0 C 67 % 1003,9 hPa 0,0 l/m 22,0 km/h (4 Bft) SW45 220 0 min 0 lux 0 W/m
28.07.2015 02:05 15,0 C 13,2 C 18,9 C 68 % 1003,9 hPa 0,0 l/m 22,0 km/h (4 Bft) SW45 220 0 min 0 lux 0 W/m
28.07.2015 02:09 14,8 C 12,9 C 18,9 C 68 % 1003,9 hPa 0,0 l/m 22,0 km/h (4 Bft) SW45 220 0 min 0 lux 0 W/m
28.07.2015 02:15 14,8 C 12,7 C 18,9 C 68 % 1003,9 hPa 0,0 l/m 22,0 km/h (4 Bft) SW45 220 0 min 0 lux 0 W/m
28.07.2015 02:20 14,6 C 12,4 C 18,9 C 69 % 1003,9 hPa 0,0 l/m 27,3 km/h (5 Bft) SW45 225 0 min 0 lux 0 W/m
28.07.2015 02:25 14,6 C 12,5 C 18,9 C 69 % 1003,9 hPa 0,0 l/m 26,6 km/h (4 Bft) SW45 215 0 min 0 lux 0 W/m
28.07.2015 02:30 14,4 C 12,2 C 18,9 C 70 % 1003,9 hPa 0,0 l/m 26,0 km/h (4 Bft) SW22.5 230 0 min 0 lux 0 W/m
28.07.2015 02:35 14,3 C 12,1 C 18,9 C 71 % 1003,9 hPa 0,0 l/m 21,5 km/h (4 Bft) SW45 225 0 min 0 lux 0 W/m
28.07.2015 02:40 14,2 C 12,0 C 18,9 C 71 % 1003,9 hPa 0,0 l/m 25,9 km/h (4 Bft) SW45 225 0 min 0 lux 0 W/m
28.07.2015 02:44 14,2 C 12,0 C 18,8 C 71 % 1003,9 hPa 0,0 l/m 27,5 km/h (5 Bft) SW45 225 0 min 0 lux 0 W/m
28.07.2015 02:49 14,2 C 12,1 C 18,8 C 71 % 1003,9 hPa 0,0 l/m 24,6 km/h (4 Bft) SW22.5 225 0 min 0 lux 0 W/m
28.07.2015 02:55 14,1 C 11,9 C 18,8 C 71 % 1003,9 hPa 0,0 l/m 27,5 km/h (5 Bft) SW45 225 0 min 0 lux 0 W/m
28.07.2015 03:00 14,1 C 12,0 C 18,8 C 71 % 1003,9 hPa 0,0 l/m 26,2 km/h (4 Bft) SW22.5 225 0 min 200 klux 0 W/m
28.07.2015 03:05 14,0 C 12,0 C 18,8 C 72 % 1003,9 hPa 0,0 l/m 25,0 km/h (4 Bft) SW45 230 0 min 0 lux 0 W/m
28.07.2015 03:10 14,1 C 12,3 C 18,8 C 71 % 1003,9 hPa 0,0 l/m 28,4 km/h (5 Bft) SW45 235 0 min 0 lux 0 W/m
28.07.2015 03:15 14,1 C 12,3 C 18,8 C 72 % 1003,9 hPa 0,0 l/m 25,3 km/h (4 Bft) W-SW45 240 0 min 0 lux 0 W/m
28.07.2015 03:19 14,1 C 12,4 C 18,8 C 72 % 1003,9 hPa 0,0 l/m 23,2 km/h (4 Bft) SW22.5 230 0 min 0 lux 0 W/m
28.07.2015 03:25 14,1 C 12,5 C 18,8 C 72 % 1003,9 hPa 0,0 l/m 27,5 km/h (5 Bft) SW45 220 0 min 0 lux 0 W/m
28.07.2015 03:30 14,0 C 12,4 C 18,8 C 72 % 1003,9 hPa 0,0 l/m 25,0 km/h (4 Bft) SW22.5 230 0 min 0 lux 0 W/m
28.07.2015 03:35 14,0 C 12,3 C 18,8 C 72 % 1003,9 hPa 0,0 l/m 24,3 km/h (4 Bft) SW22.5 220 0 min 0 lux 0 W/m
28.07.2015 03:40 13,9 C 12,2 C 18,7 C 72 % 1003,9 hPa 0,0 l/m 29,0 km/h (5 Bft) SW22.5 225 0 min 0 lux 0 W/m
28.07.2015 03:45 13,9 C 12,1 C 18,7 C 72 % 1003,9 hPa 0,0 l/m 28,9 km/h (5 Bft) SW45 220 0 min 0 lux 0 W/m
28.07.2015 03:50 13,8 C 12,1 C 18,7 C 72 % 1003,9 hPa 0,0 l/m 30,8 km/h (5 Bft) SW22.5 225 0 min 0 lux 0 W/m
28.07.2015 03:54 13,8 C 12,1 C 18,7 C 72 % 1003,9 hPa 0,0 l/m 26,7 km/h (4 Bft) SW45 220 0 min 0 lux 0 W/m
28.07.2015 04:00 13,8 C 12,1 C 18,7 C 72 % 1003,9 hPa 0,0 l/m 32,2 km/h (5 Bft) SW22.5 225 0 min 0 lux 0 W/m
28.07.2015 04:05 13,8 C 11,9 C 18,7 C 72 % 1003,9 hPa 0,0 l/m 24,5 km/h (4 Bft) SW22.5 215 0 min 0 lux 0 W/m
28.07.2015 04:10 13,6 C 11,5 C 18,6 C 73 % 1002,9 hPa 0,0 l/m 26,6 km/h (4 Bft) SW22.5 230 0 min 0 lux 0 W/m
28.07.2015 04:15 13,6 C 11,5 C 18,6 C 73 % 1002,9 hPa 0,0 l/m 32,0 km/h (5 Bft) SW45 225 0 min 0 lux 0 W/m
28.07.2015 04:20 13,6 C 11,6 C 18,6 C 73 % 1002,9 hPa 0,0 l/m 25,3 km/h (4 Bft) SW67.5 215 0 min 200 klux 0 W/m
28.07.2015 04:25 13,6 C 11,7 C 18,6 C 73 % 1002,9 hPa 0,0 l/m 26,3 km/h (4 Bft) SW45 215 0 min 0 lux 0 W/m
28.07.2015 04:29 13,4 C 11,4 C 18,6 C 74 % 1002,9 hPa 0,0 l/m 26,3 km/h (4 Bft) SW45 215 0 min 0 lux 0 W/m
28.07.2015 04:35 13,4 C 11,3 C 18,6 C 74 % 1002,9 hPa 0,0 l/m 27,5 km/h (5 Bft) SW67.5 225 0 min 0 lux 0 W/m
28.07.2015 04:40 13,4 C 11,3 C 18,6 C 74 % 1002,9 hPa 0,0 l/m 21,6 km/h (4 Bft) SW45 225 0 min 0 lux 0 W/m
28.07.2015 04:45 13,2 C 11,2 C 18,6 C 75 % 1002,9 hPa 0,0 l/m 20,7 km/h (4 Bft) SW45 230 0 min 0 lux 0 W/m
28.07.2015 04:50 13,2 C 11,2 C 18,6 C 75 % 1002,9 hPa 0,0 l/m 30,1 km/h (5 Bft) SW22.5 220 0 min 0 lux 0 W/m
28.07.2015 04:55 13,2 C 11,1 C 18,6 C 75 % 1002,9 hPa 0,0 l/m 20,1 km/h (4 Bft) SW45 215 0 min 0 lux 0 W/m
28.07.2015 05:00 13,1 C 11,1 C 18,6 C 76 % 1002,9 hPa 0,0 l/m 22,8 km/h (4 Bft) SW45 220 0 min 0 lux 0 W/m
28.07.2015 05:05 13,0 C 11,0 C 18,5 C 76 % 1003,9 hPa 0,0 l/m 22,2 km/h (4 Bft) SW22.5 230 0 min 0 lux 0 W/m
28.07.2015 05:10 13,0 C 11,0 C 18,5 C 76 % 1003,9 hPa 0,0 l/m 28,5 km/h (5 Bft) SW45 230 0 min 0 lux 0 W/m
28.07.2015 05:15 13,0 C 10,9 C 18,5 C 76 % 1003,9 hPa 0,0 l/m 23,0 km/h (4 Bft) SW67.5 220 0 min 0 lux 0 W/m
28.07.2015 05:20 13,0 C 11,0 C 18,5 C 76 % 1003,9 hPa 0,0 l/m 20,8 km/h (4 Bft) SW45 220 0 min 0 lux 0 W/m
28.07.2015 05:25 13,0 C 10,9 C 18,5 C 76 % 1003,9 hPa 0,0 l/m 20,8 km/h (4 Bft) SW45 220 0 min 37 lux 0 W/m
28.07.2015 05:30 12,9 C 10,9 C 18,5 C 76 % 1003,9 hPa 0,0 l/m 29,9 km/h (5 Bft) SW45 215 0 min 37 lux 0 W/m
28.07.2015 05:34 12,9 C 10,7 C 18,5 C 76 % 1003,9 hPa 0,0 l/m 24,1 km/h (4 Bft) SW22.5 225 0 min 134 lux 0 W/m
28.07.2015 05:40 12,9 C 10,8 C 18,5 C 76 % 1003,9 hPa 0,0 l/m 24,0 km/h (4 Bft) N-NW22.5 330 0 min 200 klux 0 W/m
28.07.2015 05:45 13,0 C 10,8 C 18,4 C 76 % 1003,9 hPa 0,0 l/m 24,4 km/h (4 Bft) SW22.5 230 0 min 292 lux 0 W/m
28.07.2015 05:50 13,0 C 10,9 C 18,4 C 76 % 1003,9 hPa 0,0 l/m 29,4 km/h (5 Bft) SW22.5 225 0 min 464 lux 0 W/m
28.07.2015 05:55 13,0 C 11,1 C 18,4 C 76 % 1003,9 hPa 0,0 l/m 25,5 km/h (4 Bft) SW22.5 215 0 min 647 lux 0 W/m
28.07.2015 06:00 13,0 C 11,2 C 18,4 C 75 % 1003,9 hPa 0,0 l/m 30,9 km/h (5 Bft) SW22.5 220 0 min 878 lux 6 W/m
28.07.2015 06:05 13,1 C 11,3 C 18,4 C 75 % 1003,9 hPa 0,0 l/m 29,3 km/h (5 Bft) S-SW45 210 0 min 1,22 klux 8 W/m
28.07.2015 06:09 13,2 C 11,4 C 18,4 C 75 % 1003,9 hPa 0,0 l/m 27,7 km/h (5 Bft) SW22.5 225 0 min 1,62 klux 11 W/m
28.07.2015 06:15 13,2 C 11,5 C 18,4 C 75 % 1003,9 hPa 0,0 l/m 19,1 km/h (3 Bft) SW45 225 0 min 2,06 klux 14 W/m
28.07.2015 06:20 13,2 C 11,6 C 18,4 C 75 % 1003,9 hPa 0,0 l/m 30,2 km/h (5 Bft) SW45 230 0 min 2,70 klux 18 W/m
28.07.2015 06:25 13,4 C 12,1 C 18,4 C 74 % 1003,9 hPa 0,0 l/m 28,6 km/h (5 Bft) SW22.5 225 0 min 3,31 klux 23 W/m
28.07.2015 06:30 13,5 C 12,7 C 18,4 C 74 % 1003,9 hPa 0,0 l/m 30,7 km/h (5 Bft) SW45 230 0 min 3,42 klux 23 W/m
28.07.2015 06:35 13,6 C 12,9 C 18,4 C 74 % 1003,9 hPa 0,0 l/m 30,7 km/h (5 Bft) SW45 230 0 min 3,45 klux 24 W/m
28.07.2015 06:40 13,6 C 13,1 C 18,4 C 74 % 1003,9 hPa 0,0 l/m 33,2 km/h (5 Bft) SW45 225 0 min 4,36 klux 30 W/m
28.07.2015 06:44 13,7 C 13,4 C 18,3 C 74 % 1003,9 hPa 0,0 l/m 28,9 km/h (5 Bft) SW45 225 0 min 4,67 klux 32 W/m
28.07.2015 06:50 13,9 C 13,6 C 18,3 C 73 % 1003,9 hPa 0,0 l/m 30,3 km/h (5 Bft) SW67.5 230 0 min 5,13 klux 35 W/m
28.07.2015 06:55 14,0 C 13,7 C 18,3 C 73 % 1003,9 hPa 0,0 l/m 33,5 km/h (5 Bft) W-SW45 240 0 min 6,31 klux 43 W/m
28.07.2015 07:00 14,0 C 14,0 C 18,3 C 73 % 1003,9 hPa 0,0 l/m 56,4 km/h (7 Bft) O67.5 100 0 min 445 lux 3 W/m
28.07.2015 07:05 14,0 C 14,4 C 18,3 C 73 % 1003,9 hPa 0,0 l/m 34,1 km/h (5 Bft) SW22.5 230 0 min 6,21 klux 42 W/m
28.07.2015 07:10 14,2 C 14,4 C 18,3 C 73 % 1003,9 hPa 0,0 l/m 33,0 km/h (5 Bft) SW45 230 0 min 6,68 klux 46 W/m
28.07.2015 07:15 14,3 C 14,6 C 18,3 C 72 % 1003,9 hPa 0,0 l/m 38,8 km/h (6 Bft) SW67.5 235 0 min 7,63 klux 52 W/m
28.07.2015 07:19 14,3 C 14,8 C 18,3 C 72 % 1003,9 hPa 0,0 l/m 35,9 km/h (5 Bft) SW45 225 0 min 6,47 klux 44 W/m
28.07.2015 07:25 14,4 C 14,8 C 18,2 C 72 % 1003,9 hPa 0,0 l/m 32,0 km/h (5 Bft) SW22.5 230 0 min 6,47 klux 44 W/m
28.07.2015 07:30 14,4 C 15,0 C 18,2 C 72 % 1003,9 hPa 0,0 l/m 32,0 km/h (5 Bft) SW22.5 230 0 min 7,61 klux 52 W/m
28.07.2015 07:35 14,5 C 15,1 C 18,2 C 73 % 1003,9 hPa 0,0 l/m 30,1 km/h (5 Bft) SW45 225 0 min 8,47 klux 58 W/m
28.07.2015 07:40 14,6 C 15,2 C 18,2 C 73 % 1003,9 hPa 0,0 l/m 40,1 km/h (6 Bft) W-SW22.5 240 0 min 7,99 klux 55 W/m
28.07.2015 07:45 14,7 C 15,4 C 18,2 C 73 % 1003,9 hPa 0,0 l/m 35,9 km/h (5 Bft) SW45 230 0 min 9,1 klux 62 W/m
28.07.2015 07:50 14,7 C 15,3 C 18,2 C 73 % 1003,9 hPa 0,0 l/m 38,0 km/h (6 Bft) SW45 235 0 min 8,92 klux 61 W/m
28.07.2015 07:54 14,5 C 14,7 C 18,2 C 74 % 1003,9 hPa 0,0 l/m 38,0 km/h (6 Bft) SW45 235 0 min 8,64 klux 59 W/m
28.07.2015 08:00 14,6 C 15,0 C 18,2 C 75 % 1003,9 hPa 0,0 l/m 33,1 km/h (5 Bft) SW67.5 235 0 min 7,63 klux 52 W/m
28.07.2015 08:05 14,2 C 14,2 C 18,2 C 78 % 1003,9 hPa 0,0 l/m 32,4 km/h (5 Bft) W-SW22.5 240 0 min 9,4 klux 64 W/m
28.07.2015 08:10 14,0 C 13,9 C 18,2 C 80 % 1003,9 hPa 0,0 l/m 32,5 km/h (5 Bft) SW45 230 0 min 9,2 klux 63 W/m
28.07.2015 08:15 13,8 C 13,7 C 18,2 C 81 % 1004,9 hPa 0,0 l/m 34,8 km/h (5 Bft) SW67.5 235 0 min 8,83 klux 60 W/m
28.07.2015 08:20 13,5 C 13,6 C 18,2 C 83 % 1004,9 hPa 0,0 l/m 35,0 km/h (5 Bft) O-SO22.5 110 5 min 200 klux 1368 W/m
28.07.2015 08:24 13,5 C 13,9 C 18,2 C 84 % 1003,9 hPa 0,0 l/m 21,0 km/h (4 Bft) SW22.5 220 0 min 12,8 klux 88 W/m
28.07.2015 08:30 13,6 C 14,5 C 18,2 C 84 % 1003,9 hPa 0,0 l/m 22,3 km/h (4 Bft) SW45 220 0 min 15,7 klux 107 W/m
28.07.2015 08:35 13,6 C 14,5 C 18,2 C 84 % 1003,9 hPa 0,0 l/m 20,0 km/h (4 Bft) SW45 220 0 min 13,2 klux 90 W/m
28.07.2015 08:40 13,6 C 14,9 C 18,2 C 84 % 1004,9 hPa 0,0 l/m 25,6 km/h (4 Bft) SW45 220 0 min 17,9 klux 122 W/m
28.07.2015 08:45 14,0 C 15,2 C 18,2 C 82 % 1004,9 hPa 0,0 l/m 20,8 km/h (4 Bft) SW45 230 0 min 15,7 klux 107 W/m
28.07.2015 08:50 14,2 C 15,1 C 18,2 C 80 % 1004,9 hPa 0,0 l/m 28,3 km/h (5 Bft) SW45 225 0 min 13,2 klux 90 W/m
28.07.2015 08:55 14,4 C 14,9 C 18,2 C 80 % 1004,9 hPa 0,0 l/m 38,4 km/h (6 Bft) SW45 220 0 min 11,9 klux 81 W/m
28.07.2015 09:00 14,5 C 15,2 C 18,2 C 79 % 1004,9 hPa 0,0 l/m 26,7 km/h (4 Bft) SW22.5 230 0 min 10,1 klux 69 W/m
28.07.2015 09:05 14,5 C 15,4 C 18,2 C 79 % 1004,9 hPa 0,0 l/m 26,1 km/h (4 Bft) SW45 235 0 min 14,0 klux 96 W/m
28.07.2015 09:10 14,7 C 16,0 C 18,2 C 78 % 1004,9 hPa 0,0 l/m 29,4 km/h (5 Bft) SW67.5 230 0 min 15,5 klux 106 W/m
28.07.2015 09:15 14,7 C 16,2 C 18,2 C 78 % 1004,9 hPa 0,0 l/m 24,0 km/h (4 Bft) SW45 230 0 min 10,5 klux 72 W/m
28.07.2015 09:20 14,9 C 16,2 C 18,2 C 76 % 1004,9 hPa 0,0 l/m 31,4 km/h (5 Bft) SW45 230 0 min 11,4 klux 78 W/m
28.07.2015 09:25 15,0 C 16,3 C 18,1 C 76 % 1004,9 hPa 0,0 l/m 28,3 km/h (5 Bft) SW22.5 230 0 min 11,6 klux 79 W/m
28.07.2015 09:30 15,0 C 16,3 C 18,1 C 75 % 1004,9 hPa 0,0 l/m 31,2 km/h (5 Bft) SW45 220 0 min 11,4 klux 78 W/m
28.07.2015 09:34 15,0 C 17,1 C 18,1 C 76 % 1004,9 hPa 0,0 l/m 33,9 km/h (5 Bft) SW45 230 0 min 21,7 klux 148 W/m
28.07.2015 09:40 15,0 C 17,7 C 18,1 C 76 % 1004,9 hPa 0,0 l/m 55,3 km/h (7 Bft) SO22.5 145 0 min 137 lux 1 W/m
28.07.2015 09:45 15,5 C 18,3 C 18,1 C 74 % 1004,9 hPa 0,0 l/m 33,7 km/h (5 Bft) SW22.5 225 0 min 29,0 klux 198 W/m
28.07.2015 09:50 15,7 C 19,5 C 18,1 C 73 % 1004,9 hPa 0,0 l/m 36,5 km/h (5 Bft) SW45 230 0 min 37,9 klux 259 W/m
28.07.2015 09:55 16,0 C 20,1 C 18,1 C 72 % 1004,9 hPa 0,0 l/m 42,2 km/h (6 Bft) W-SW22.5 250 0 min 26,2 klux 179 W/m
28.07.2015 10:00 16,1 C 19,7 C 18,0 C 71 % 1004,9 hPa 0,0 l/m 26,7 km/h (4 Bft) SW67.5 230 0 min 28,1 klux 192 W/m
28.07.2015 10:04 16,1 C 20,0 C 18,1 C 71 % 1004,9 hPa 0,0 l/m 37,2 km/h (5 Bft) SW45 230 0 min 31,2 klux 213 W/m
28.07.2015 10:10 16,4 C 21,4 C 18,1 C 70 % 1004,8 hPa 0,0 l/m 29,8 km/h (5 Bft) SW45 235 0 min 36,0 klux 246 W/m
28.07.2015 10:15 16,8 C 21,4 C 18,1 C 69 % 1004,8 hPa 0,0 l/m 35,8 km/h (5 Bft) SW45 235 5 min 84,7 klux 579 W/m
28.07.2015 10:20 16,8 C 22,9 C 18,1 C 69 % 1004,8 hPa 0,0 l/m 33,9 km/h (5 Bft) SW45 230 5 min 52,9 klux 362 W/m
28.07.2015 10:25 16,8 C 23,8 C 18,1 C 69 % 1004,8 hPa 0,0 l/m 31,0 km/h (5 Bft) SW67.5 235 5 min 60,5 klux 414 W/m
28.07.2015 10:30 17,2 C 23,6 C 18,1 C 67 % 1004,8 hPa 0,0 l/m 36,2 km/h (5 Bft) W-SW45 245 5 min 55,7 klux 381 W/m
28.07.2015 10:35 17,2 C 23,7 C 18,1 C 67 % 1004,8 hPa 0,0 l/m 37,1 km/h (5 Bft) W-SW45 240 5 min 98,5 klux 674 W/m
28.07.2015 10:39 17,6 C 23,7 C 18,1 C 68 % 1004,8 hPa 0,0 l/m 33,7 km/h (5 Bft) W-SW45 240 4 min 74,0 klux 506 W/m
28.07.2015 10:45 17,4 C 23,4 C 18,1 C 66 % 1004,8 hPa 0,0 l/m 46,2 km/h (6 Bft) SW45 230 6 min 62,3 klux 426 W/m
28.07.2015 10:50 17,4 C 24,4 C 18,1 C 66 % 1004,8 hPa 0,0 l/m 44,6 km/h (6 Bft) SW45 235 5 min 59,1 klux 404 W/m
28.07.2015 10:55 17,6 C 24,3 C 18,1 C 64 % 1004,8 hPa 0,0 l/m 47,4 km/h (6 Bft) SW67.5 235 5 min 109 klux 746 W/m
28.07.2015 11:00 18,0 C 27,1 C 18,2 C 65 % 1004,8 hPa 0,0 l/m 49,1 km/h (7 Bft) W-SW45 240 0 min 194 lux 1 W/m
28.07.2015 11:05 18,2 C 27,4 C 18,2 C 63 % 1004,8 hPa 0,0 l/m 37,8 km/h (5 Bft) W-SW22.5 240 5 min 110 klux 752 W/m
28.07.2015 11:10 18,4 C 27,9 C 18,2 C 62 % 1004,8 hPa 0,0 l/m 43,7 km/h (6 Bft) W-SW45 240 5 min 91,1 klux 623 W/m
28.07.2015 11:14 18,3 C 27,0 C 18,2 C 62 % 1004,8 hPa 0,0 l/m 44,4 km/h (6 Bft) SW45 235 4 min 84,9 klux 581 W/m
28.07.2015 11:20 18,2 C 26,9 C 18,2 C 62 % 1004,8 hPa 0,0 l/m 36,6 km/h (5 Bft) SW45 235 6 min 111 klux 759 W/m
28.07.2015 11:25 18,4 C 26,5 C 18,2 C 62 % 1004,8 hPa 0,0 l/m 39,7 km/h (6 Bft) SW67.5 235 5 min 69,0 klux 472 W/m
28.07.2015 11:30 18,4 C 25,8 C 18,3 C 62 % 1004,8 hPa 0,0 l/m 46,8 km/h (6 Bft) SW67.5 235 0 min 56,0 klux 383 W/m
28.07.2015 11:35 18,1 C 24,4 C 18,3 C 63 % 1004,8 hPa 0,0 l/m 48,8 km/h (7 Bft) W-SW45 255 0 min 56,4 klux 386 W/m
28.07.2015 11:40 18,1 C 24,9 C 18,3 C 63 % 1004,8 hPa 0,0 l/m 42,6 km/h (6 Bft) W-SW22.5 245 0 min 55,7 klux 381 W/m
28.07.2015 11:45 17,9 C 23,5 C 18,3 C 61 % 1004,8 hPa 0,0 l/m 50,3 km/h (7 Bft) W-SW22.5 240 0 min 51,0 klux 349 W/m
28.07.2015 11:49 17,9 C 24,0 C 18,3 C 61 % 1004,8 hPa 0,0 l/m 50,6 km/h (7 Bft) W-SW45 240 0 min 53,5 klux 366 W/m
28.07.2015 11:55 18,0 C 24,2 C 18,3 C 62 % 1004,8 hPa 0,0 l/m 39,3 km/h (6 Bft) SW45 235 0 min 60,9 klux 417 W/m
28.07.2015 12:00 18,0 C 23,0 C 18,3 C 63 % 1004,8 hPa 0,0 l/m 46,7 km/h (6 Bft) W-SW67.5 240 0 min 41,0 klux 280 W/m
28.07.2015 12:05 18,0 C 22,8 C 18,3 C 62 % 1004,8 hPa 0,0 l/m 41,3 km/h (6 Bft) W-SW45 240 0 min 39,3 klux 269 W/m
28.07.2015 12:10 17,8 C 22,4 C 18,4 C 62 % 1004,8 hPa 0,0 l/m 41,3 km/h (6 Bft) W-SW67.5 240 0 min 36,5 klux 250 W/m
28.07.2015 12:14 17,8 C 21,0 C 18,4 C 62 % 1005,8 hPa 0,0 l/m 51,4 km/h (7 Bft) SW45 225 0 min 34,3 klux 235 W/m
28.07.2015 12:19 17,5 C 21,2 C 18,4 C 62 % 1005,8 hPa 0,0 l/m 45,9 km/h (6 Bft) SW45 230 0 min 1,60 klux 11 W/m
28.07.2015 12:25 17,6 C 21,4 C 18,4 C 61 % 1005,8 hPa 0,0 l/m 37,3 km/h (5 Bft) W-SW22.5 240 0 min 50,6 klux 346 W/m
28.07.2015 12:30 17,5 C 22,6 C 18,4 C 62 % 1005,8 hPa 0,0 l/m 39,4 km/h (6 Bft) W-SW45 240 5 min 66,7 klux 456 W/m
28.07.2015 12:35 17,5 C 23,2 C 18,4 C 62 % 1005,8 hPa 0,0 l/m 36,6 km/h (5 Bft) SW45 230 0 min 49,4 klux 338 W/m
28.07.2015 12:40 17,4 C 23,3 C 18,4 C 65 % 1005,8 hPa 0,0 l/m 41,3 km/h (6 Bft) SW22.5 230 0 min 46,9 klux 321 W/m
28.07.2015 12:45 17,5 C 23,3 C 18,4 C 66 % 1005,8 hPa 0,0 l/m 48,0 km/h (6 Bft) SW45 230 5 min 110 klux 752 W/m
28.07.2015 12:49 17,5 C 25,0 C 18,4 C 68 % 1005,8 hPa 0,0 l/m 35,4 km/h (5 Bft) W-SW67.5 240 0 min 55,7 klux 381 W/m
28.07.2015 12:55 17,0 C 23,0 C 18,4 C 69 % 1005,8 hPa 0,0 l/m 34,9 km/h (5 Bft) SW45 225 0 min 40,5 klux 277 W/m
28.07.2015 13:00 16,4 C 21,5 C 18,4 C 71 % 1005,9 hPa 0,0 l/m 48,9 km/h (7 Bft) W-SW45 240 0 min 39,7 klux 272 W/m
28.07.2015 13:05 16,4 C 20,5 C 18,4 C 71 % 1005,9 hPa 0,0 l/m 39,1 km/h (6 Bft) SW67.5 230 0 min 41,5 klux 284 W/m
28.07.2015 13:10 16,3 C 21,4 C 18,4 C 71 % 1005,9 hPa 0,0 l/m 41,1 km/h (6 Bft) SW45 230 0 min 44,1 klux 302 W/m
28.07.2015 13:15 16,6 C 21,4 C 18,3 C 71 % 1005,9 hPa 0,0 l/m 35,7 km/h (5 Bft) SW45 230 0 min 55,1 klux 377 W/m
28.07.2015 13:19 16,7 C 22,8 C 18,3 C 72 % 1005,8 hPa 0,0 l/m 30,7 km/h (5 Bft) SW67.5 225 0 min 63,0 klux 431 W/m
28.07.2015 13:25 17,2 C 25,7 C 18,3 C 71 % 1005,8 hPa 0,0 l/m 32,5 km/h (5 Bft) SW45 220 6 min 76,0 klux 520 W/m
28.07.2015 13:30 17,4 C 27,1 C 18,3 C 70 % 1005,8 hPa 0,0 l/m 33,1 km/h (5 Bft) SW45 215 0 min 66,4 klux 454 W/m
28.07.2015 13:35 17,5 C 28,0 C 18,3 C 70 % 1005,8 hPa 0,0 l/m 38,6 km/h (6 Bft) SW45 230 5 min 72,2 klux 494 W/m
28.07.2015 13:40 18,1 C 30,8 C 18,4 C 67 % 1005,8 hPa 0,0 l/m 33,5 km/h (5 Bft) SW45 220 5 min 157 klux 1074 W/m
28.07.2015 13:45 17,9 C 27,5 C 18,4 C 65 % 1005,8 hPa 0,0 l/m 30,8 km/h (5 Bft) SW45 235 0 min 54,6 klux 373 W/m
28.07.2015 13:50 17,9 C 26,5 C 18,4 C 65 % 1005,8 hPa 0,0 l/m 42,9 km/h (6 Bft) W-SW45 240 0 min 56,3 klux 385 W/m
28.07.2015 13:54 17,7 C 24,1 C 18,4 C 66 % 1005,8 hPa 0,0 l/m 38,2 km/h (6 Bft) SW67.5 230 0 min 42,0 klux 287 W/m
28.07.2015 14:00 17,7 C 23,0 C 18,4 C 65 % 1005,8 hPa 0,0 l/m 44,5 km/h (6 Bft) W-SW67.5 240 0 min 49,3 klux 337 W/m
28.07.2015 14:05 17,8 C 23,5 C 18,4 C 63 % 1005,8 hPa 0,0 l/m 41,8 km/h (6 Bft) SW45 230 5 min 68,0 klux 465 W/m
28.07.2015 14:10 17,8 C 24,4 C 18,4 C 64 % 1005,8 hPa 0,0 l/m 41,7 km/h (6 Bft) SW67.5 220 0 min 56,9 klux 389 W/m
28.07.2015 14:15 18,0 C 23,8 C 18,4 C 62 % 1005,8 hPa 0,0 l/m 47,9 km/h (6 Bft) SW45 225 0 min 60,1 klux 411 W/m
28.07.2015 14:19 18,0 C 23,9 C 18,4 C 63 % 1005,8 hPa 0,0 l/m 51,4 km/h (7 Bft) SW45 235 0 min 52,5 klux 359 W/m
28.07.2015 14:25 18,1 C 23,6 C 18,4 C 64 % 1005,8 hPa 0,0 l/m 44,2 km/h (6 Bft) SW45 230 0 min 54,2 klux 371 W/m
28.07.2015 14:30 18,0 C 23,9 C 18,5 C 63 % 1005,8 hPa 0,0 l/m 43,1 km/h (6 Bft) SW67.5 225 0 min 52,5 klux 359 W/m
28.07.2015 14:35 17,9 C 23,2 C 18,5 C 62 % 1005,8 hPa 0,0 l/m 50,1 km/h (7 Bft) SW45 225 0 min 51,3 klux 351 W/m
28.07.2015 14:40 18,0 C 23,5 C 18,5 C 61 % 1005,8 hPa 0,0 l/m 54,3 km/h (7 Bft) W-SW45 245 0 min 63,8 klux 436 W/m
28.07.2015 14:45 18,0 C 24,4 C 18,5 C 62 % 1005,8 hPa 0,0 l/m 45,6 km/h (6 Bft) W-SW45 250 0 min 59,0 klux 404 W/m
28.07.2015 14:50 18,5 C 26,2 C 18,5 C 59 % 1005,8 hPa 0,0 l/m 42,2 km/h (6 Bft) SW45 235 5 min 121 klux 828 W/m
28.07.2015 14:54 18,7 C 27,0 C 18,5 C 58 % 1005,8 hPa 0,0 l/m 44,3 km/h (6 Bft) SW67.5 235 4 min 108 klux 739 W/m
28.07.2015 15:00 18,5 C 26,0 C 18,5 C 58 % 1005,8 hPa 0,0 l/m 48,9 km/h (7 Bft) SW45 215 0 min 15,2 klux 104 W/m
28.07.2015 15:05 18,5 C 25,6 C 18,5 C 58 % 1005,8 hPa 0,0 l/m 38,9 km/h (6 Bft) SW67.5 215 0 min 62,8 klux 430 W/m
28.07.2015 15:10 18,5 C 25,6 C 18,6 C 58 % 1005,8 hPa 0,0 l/m 40,2 km/h (6 Bft) SW45 225 5 min 63,3 klux 433 W/m
28.07.2015 15:15 18,4 C 25,0 C 18,6 C 58 % 1005,8 hPa 0,0 l/m 43,5 km/h (6 Bft) W-SW45 245 5 min 63,3 klux 433 W/m
28.07.2015 15:20 18,5 C 24,4 C 18,6 C 59 % 1005,8 hPa 0,0 l/m 46,8 km/h (6 Bft) W-SW45 245 0 min 55,9 klux 382 W/m
28.07.2015 15:24 18,5 C 24,9 C 18,6 C 59 % 1005,8 hPa 0,0 l/m 37,7 km/h (5 Bft) W-SW45 240 4 min 63,0 klux 431 W/m
28.07.2015 15:30 19,0 C 27,7 C 18,6 C 60 % 1005,8 hPa 0,0 l/m 37,7 km/h (5 Bft) W-SW45 240 6 min 95,2 klux 651 W/m
28.07.2015 15:35 19,5 C 29,2 C 18,7 C 59 % 1005,8 hPa 0,0 l/m 45,5 km/h (6 Bft) W-SW45 240 5 min 75,1 klux 514 W/m
28.07.2015 15:40 19,3 C 28,1 C 18,8 C 58 % 1005,8 hPa 0,0 l/m 40,8 km/h (6 Bft) SW45 230 5 min 60,9 klux 417 W/m
28.07.2015 15:45 19,3 C 26,7 C 18,8 C 58 % 1005,8 hPa 0,0 l/m 38,8 km/h (6 Bft) SW67.5 235 0 min 55,4 klux 379 W/m
28.07.2015 15:50 19,0 C 25,6 C 18,9 C 58 % 1005,8 hPa 0,0 l/m 41,4 km/h (6 Bft) SW45 230 0 min 43,0 klux 294 W/m
28.07.2015 15:54 18,8 C 23,3 C 18,9 C 58 % 1005,8 hPa 0,0 l/m 39,3 km/h (6 Bft) W-SW45 245 0 min 27,8 klux 190 W/m
28.07.2015 15:59 18,8 C 23,3 C 18,9 C 58 % 1005,8 hPa 0,0 l/m 45,2 km/h (6 Bft) SW67.5 230 0 min 26,2 klux 179 W/m
28.07.2015 16:05 18,6 C 21,4 C 18,9 C 59 % 1005,8 hPa 0,0 l/m 39,4 km/h (6 Bft) W-SW22.5 245 0 min 24,4 klux 167 W/m
28.07.2015 16:10 18,1 C 19,9 C 18,9 C 60 % 1005,8 hPa 0,0 l/m 43,1 km/h (6 Bft) W-SW45 250 0 min 12,3 klux 84 W/m
28.07.2015 16:15 18,0 C 19,2 C 18,9 C 60 % 1005,8 hPa 0,0 l/m 44,7 km/h (6 Bft) W-SW45 240 0 min 12,5 klux 86 W/m
28.07.2015 16:20 18,0 C 18,9 C 18,9 C 60 % 1005,8 hPa 0,0 l/m 44,9 km/h (6 Bft) W-SW67.5 240 5 min 200 klux 1368 W/m
28.07.2015 16:24 17,8 C 18,7 C 18,8 C 60 % 1005,8 hPa 0,0 l/m 43,7 km/h (6 Bft) W-SW67.5 240 0 min 15,0 klux 103 W/m
28.07.2015 16:30 17,8 C 19,1 C 18,8 C 59 % 1005,8 hPa 0,0 l/m 48,3 km/h (6 Bft) W-SW45 240 0 min 21,7 klux 148 W/m
28.07.2015 16:35 17,9 C 19,5 C 18,8 C 58 % 1005,8 hPa 0,0 l/m 45,5 km/h (6 Bft) W-SW45 240 0 min 28,4 klux 194 W/m
28.07.2015 16:40 18,1 C 20,4 C 18,7 C 57 % 1005,8 hPa 0,0 l/m 44,6 km/h (6 Bft) SW67.5 230 0 min 28,4 klux 194 W/m
28.07.2015 16:45 18,3 C 21,4 C 18,7 C 58 % 1005,8 hPa 0,0 l/m 42,8 km/h (6 Bft) W-SW22.5 240 0 min 36,5 klux 250 W/m
28.07.2015 16:50 18,0 C 20,8 C 18,7 C 60 % 1005,8 hPa 0,0 l/m 41,9 km/h (6 Bft) W-SW45 255 0 min 16,7 klux 114 W/m
28.07.2015 16:55 18,0 C 19,9 C 18,7 C 60 % 1005,8 hPa 0,0 l/m 42,5 km/h (6 Bft) W-SW45 245 0 min 14,2 klux 97 W/m
28.07.2015 16:59 17,8 C 19,2 C 18,7 C 59 % 1005,8 hPa 0,0 l/m 41,5 km/h (6 Bft) W-SW22.5 240 0 min 10,7 klux 73 W/m
28.07.2015 17:05 17,8 C 18,4 C 18,7 C 60 % 1005,8 hPa 0,0 l/m 36,4 km/h (5 Bft) W45 260 0 min 7,10 klux 49 W/m
28.07.2015 17:10 17,6 C 18,2 C 18,7 C 60 % 1005,8 hPa 0,0 l/m 34,1 km/h (5 Bft) W-SW45 245 0 min 7,23 klux 49 W/m
28.07.2015 17:15 17,6 C 18,2 C 18,7 C 61 % 1005,8 hPa 0,0 l/m 31,5 km/h (5 Bft) W-SW45 250 0 min 11,6 klux 79 W/m
28.07.2015 17:20 17,6 C 18,9 C 18,7 C 61 % 1005,8 hPa 0,0 l/m 33,9 km/h (5 Bft) W-SW45 250 0 min 19,8 klux 135 W/m
28.07.2015 17:25 17,6 C 19,8 C 18,7 C 61 % 1005,8 hPa 0,0 l/m 38,8 km/h (6 Bft) W45 260 0 min 30,0 klux 205 W/m
28.07.2015 17:29 18,2 C 21,4 C 18,7 C 62 % 1005,8 hPa 0,0 l/m 29,9 km/h (5 Bft) W-SW22.5 240 0 min 36,7 klux 251 W/m
28.07.2015 17:35 18,4 C 22,3 C 18,7 C 61 % 1005,8 hPa 0,0 l/m 33,8 km/h (5 Bft) SW45 235 0 min 38,0 klux 260 W/m
28.07.2015 17:40 18,5 C 22,5 C 18,7 C 60 % 1005,8 hPa 0,0 l/m 29,8 km/h (5 Bft) W-SW45 250 0 min 289 lux 2 W/m
28.07.2015 17:45 18,5 C 22,8 C 18,7 C 60 % 1005,8 hPa 0,0 l/m 33,7 km/h (5 Bft) SW45 230 5 min 44,4 klux 304 W/m
28.07.2015 17:50 18,7 C 23,5 C 18,7 C 61 % 1005,8 hPa 0,0 l/m 37,0 km/h (5 Bft) W-SW45 255 5 min 47,6 klux 326 W/m
28.07.2015 17:55 18,5 C 22,9 C 18,7 C 59 % 1005,8 hPa 0,0 l/m 35,1 km/h (5 Bft) W-SW45 250 0 min 32,4 klux 222 W/m
28.07.2015 17:59 18,4 C 22,2 C 18,8 C 60 % 1005,8 hPa 0,0 l/m 32,9 km/h (5 Bft) W45 260 0 min 24,9 klux 170 W/m
28.07.2015 18:05 18,3 C 21,0 C 18,8 C 60 % 1005,8 hPa 0,0 l/m 40,6 km/h (6 Bft) W-SW22.5 250 0 min 23,5 klux 161 W/m
28.07.2015 18:10 18,3 C 20,8 C 18,8 C 58 % 1005,8 hPa 0,0 l/m 38,0 km/h (6 Bft) W-SW22.5 240 0 min 25,6 klux 175 W/m
28.07.2015 18:15 18,2 C 20,6 C 18,8 C 59 % 1005,8 hPa 0,0 l/m 40,9 km/h (6 Bft) W-SW45 240 0 min 23,0 klux 157 W/m
28.07.2015 18:20 18,4 C 20,9 C 18,8 C 59 % 1005,8 hPa 0,0 l/m 36,2 km/h (5 Bft) W-SW45 245 0 min 26,5 klux 181 W/m
28.07.2015 18:25 18,4 C 21,2 C 18,8 C 59 % 1005,8 hPa 0,0 l/m 36,5 km/h (5 Bft) W-SW45 240 0 min 29,4 klux 201 W/m
28.07.2015 18:29 18,5 C 21,3 C 18,8 C 58 % 1005,8 hPa 0,0 l/m 32,5 km/h (5 Bft) W-SW22.5 250 0 min 24,8 klux 170 W/m
28.07.2015 18:35 18,4 C 21,1 C 18,8 C 58 % 1005,8 hPa 0,0 l/m 42,2 km/h (6 Bft) W-SW22.5 250 0 min 19,8 klux 135 W/m
28.07.2015 18:40 18,4 C 20,5 C 18,8 C 57 % 1005,8 hPa 0,0 l/m 42,2 km/h (6 Bft) W-SW22.5 250 0 min 14,7 klux 101 W/m
28.07.2015 18:45 18,3 C 19,6 C 18,8 C 56 % 1005,8 hPa 0,0 l/m 43,2 km/h (6 Bft) SW45 235 0 min 12,1 klux 83 W/m
28.07.2015 18:50 18,3 C 19,6 C 18,8 C 56 % 1005,8 hPa 0,0 l/m 39,8 km/h (6 Bft) W-SW22.5 245 0 min 10,8 klux 74 W/m
28.07.2015 18:55 18,0 C 18,9 C 18,8 C 57 % 1005,8 hPa 0,0 l/m 35,0 km/h (5 Bft) W-SW45 250 0 min 9,4 klux 65 W/m
28.07.2015 19:00 17,9 C 18,5 C 18,8 C 57 % 1005,8 hPa 0,0 l/m 34,5 km/h (5 Bft) W-SW45 255 0 min 10,4 klux 71 W/m
28.07.2015 19:05 17,9 C 18,5 C 18,8 C 57 % 1006,8 hPa 0,0 l/m 34,5 km/h (5 Bft) W-SW45 255 0 min 11,4 klux 78 W/m
28.07.2015 19:10 17,8 C 18,5 C 18,8 C 57 % 1006,8 hPa 0,0 l/m 36,2 km/h (5 Bft) W-SW22.5 250 0 min 11,4 klux 78 W/m
28.07.2015 19:15 17,8 C 18,5 C 18,8 C 58 % 1005,8 hPa 0,0 l/m 33,0 km/h (5 Bft) W22.5 260 0 min 10,9 klux 75 W/m
28.07.2015 19:20 17,8 C 18,5 C 18,8 C 58 % 1005,8 hPa 0,0 l/m 30,9 km/h (5 Bft) W-SW67.5 240 0 min 10,9 klux 75 W/m
28.07.2015 19:25 17,8 C 18,4 C 18,8 C 58 % 1005,8 hPa 0,0 l/m 31,5 km/h (5 Bft) W-SW22.5 250 0 min 9,2 klux 63 W/m
28.07.2015 19:29 17,7 C 18,2 C 18,8 C 59 % 1005,8 hPa 0,0 l/m 31,5 km/h (5 Bft) W-SW22.5 250 0 min 6,49 klux 44 W/m
28.07.2015 19:34 17,7 C 18,0 C 18,8 C 59 % 1005,8 hPa 0,0 l/m 25,6 km/h (4 Bft) W-SW67.5 250 0 min 4,48 klux 31 W/m
28.07.2015 19:40 17,7 C 18,0 C 18,8 C 59 % 1005,8 hPa 0,0 l/m 26,5 km/h (4 Bft) W-SW22.5 255 0 min 5,03 klux 34 W/m
28.07.2015 19:45 17,8 C 18,0 C 18,8 C 59 % 1005,8 hPa 0,0 l/m 26,6 km/h (4 Bft) W-SW45 240 0 min 11,0 klux 75 W/m
28.07.2015 19:50 18,0 C 18,9 C 18,8 C 59 % 1006,8 hPa 0,0 l/m 23,1 km/h (4 Bft) W-SW22.5 240 0 min 15,3 klux 105 W/m
28.07.2015 19:55 18,0 C 19,0 C 18,8 C 59 % 1006,8 hPa 0,0 l/m 23,1 km/h (4 Bft) W-SW22.5 240 0 min 14,0 klux 96 W/m
28.07.2015 20:00 18,0 C 19,1 C 18,8 C 58 % 1006,8 hPa 0,0 l/m 34,6 km/h (5 Bft) SW22.5 225 0 min 12,8 klux 88 W/m
28.07.2015 20:05 17,8 C 18,5 C 18,8 C 58 % 1006,8 hPa 0,0 l/m 32,4 km/h (5 Bft) W-SW45 245 0 min 12,8 klux 88 W/m
28.07.2015 20:10 17,8 C 18,3 C 18,8 C 58 % 1005,8 hPa 0,0 l/m 33,2 km/h (5 Bft) W-SW22.5 250 0 min 11,2 klux 77 W/m
28.07.2015 20:15 17,7 C 17,8 C 18,8 C 58 % 1005,8 hPa 0,0 l/m 30,7 km/h (5 Bft) W-SW45 240 0 min 9,1 klux 63 W/m
28.07.2015 20:20 17,5 C 17,3 C 18,8 C 58 % 1005,8 hPa 0,0 l/m 24,1 km/h (4 Bft) W-SW22.5 250 0 min 7,67 klux 52 W/m
28.07.2015 20:25 17,4 C 16,9 C 18,8 C 59 % 1005,8 hPa 0,0 l/m 22,0 km/h (4 Bft) SW45 235 0 min 6,44 klux 44 W/m
28.07.2015 20:29 17,3 C 16,7 C 18,8 C 59 % 1005,8 hPa 0,0 l/m 22,9 km/h (4 Bft) W-SW22.5 250 0 min 5,52 klux 38 W/m
28.07.2015 20:34 17,3 C 16,5 C 18,8 C 57 % 1006,8 hPa 0,0 l/m 43,2 km/h (6 Bft) W-SW45 245 0 min 5,01 klux 34 W/m
28.07.2015 20:40 17,3 C 16,3 C 18,8 C 57 % 1006,8 hPa 0,0 l/m 32,4 km/h (5 Bft) W-SW22.5 245 0 min 4,81 klux 33 W/m
28.07.2015 20:45 17,2 C 16,3 C 18,7 C 57 % 1006,8 hPa 0,0 l/m 29,8 km/h (5 Bft) W-SW22.5 240 0 min 4,85 klux 33 W/m
28.07.2015 20:50 17,1 C 16,1 C 18,7 C 56 % 1006,8 hPa 0,0 l/m 27,1 km/h (5 Bft) W-SW45 245 0 min 3,79 klux 26 W/m
28.07.2015 20:55 16,9 C 15,9 C 18,7 C 55 % 1006,9 hPa 0,0 l/m 30,1 km/h (5 Bft) W-SW45 240 0 min 3,48 klux 24 W/m
28.07.2015 21:00 17,0 C 15,9 C 18,7 C 54 % 1006,8 hPa 0,0 l/m 47,2 km/h (6 Bft) W-SW45 240 0 min 2,90 klux 20 W/m
28.07.2015 21:05 16,8 C 15,7 C 18,7 C 56 % 1006,9 hPa 0,0 l/m 32,2 km/h (5 Bft) SW45 235 0 min 2,25 klux 15 W/m
28.07.2015 21:10 16,7 C 15,5 C 18,7 C 55 % 1006,9 hPa 0,0 l/m 34,0 km/h (5 Bft) SW45 235 0 min 1,81 klux 12 W/m
28.07.2015 21:15 16,6 C 15,3 C 18,7 C 56 % 1006,9 hPa 0,0 l/m 29,9 km/h (5 Bft) W-SW45 240 5 min 1,44 klux 10 W/m
28.07.2015 21:20 16,6 C 15,1 C 18,6 C 56 % 1006,9 hPa 0,0 l/m 29,9 km/h (5 Bft) W-SW45 240 0 min 1,10 klux 8 W/m
28.07.2015 21:25 16,6 C 14,8 C 18,6 C 56 % 1006,9 hPa 0,0 l/m 31,4 km/h (5 Bft) SW45 235 0 min 786 lux 0 W/m
28.07.2015 21:30 16,4 C 14,8 C 18,6 C 56 % 1006,9 hPa 0,0 l/m 29,0 km/h (5 Bft) W-SW45 240 0 min 661 lux 0 W/m
28.07.2015 21:34 16,5 C 14,7 C 18,6 C 56 % 1006,9 hPa 0,0 l/m 30,3 km/h (5 Bft) W-SW45 240 0 min 437 lux 0 W/m
28.07.2015 21:40 16,3 C 14,6 C 18,6 C 56 % 1006,9 hPa 0,0 l/m 31,3 km/h (5 Bft) W-SW45 250 0 min 4,37 klux 0 W/m
28.07.2015 21:45 16,0 C 14,2 C 18,6 C 58 % 1006,9 hPa 0,0 l/m 26,8 km/h (4 Bft) SW45 235 0 min 152 lux 0 W/m
28.07.2015 21:50 16,0 C 14,0 C 18,6 C 58 % 1006,9 hPa 0,0 l/m 23,4 km/h (4 Bft) W-SW22.5 240 0 min 82 lux 0 W/m
28.07.2015 21:55 15,8 C 13,5 C 18,6 C 59 % 1006,9 hPa 0,0 l/m 17,1 km/h (3 Bft) SW22.5 230 0 min 42 lux 0 W/m
28.07.2015 22:00 15,6 C 13,5 C 18,5 C 59 % 1006,9 hPa 0,0 l/m 21,0 km/h (4 Bft) SW45 230 0 min 22 lux 0 W/m
28.07.2015 22:04 15,6 C 13,5 C 18,5 C 59 % 1006,9 hPa 0,0 l/m 23,6 km/h (4 Bft) SW22.5 230 0 min 9 lux 0 W/m
28.07.2015 22:10 15,6 C 13,5 C 18,5 C 59 % 1006,9 hPa 0,0 l/m 22,0 km/h (4 Bft) SW45 235 0 min 2 lux 0 W/m
28.07.2015 22:15 15,5 C 13,1 C 18,5 C 60 % 1006,9 hPa 0,0 l/m 25,3 km/h (4 Bft) SW45 225 0 min 2 lux 0 W/m
28.07.2015 22:20 15,5 C 13,1 C 18,5 C 60 % 1006,9 hPa 0,0 l/m 22,6 km/h (4 Bft) SW45 225 0 min 0 lux 0 W/m
28.07.2015 22:25 15,4 C 13,2 C 18,5 C 60 % 1006,9 hPa 0,0 l/m 26,0 km/h (4 Bft) SW45 225 0 min 0 lux 0 W/m
28.07.2015 22:30 15,3 C 13,2 C 18,5 C 60 % 1006,9 hPa 0,0 l/m 29,8 km/h (5 Bft) SW22.5 230 0 min 0 lux 0 W/m
28.07.2015 22:34 15,4 C 13,1 C 18,5 C 60 % 1006,9 hPa 0,0 l/m 27,8 km/h (5 Bft) SW45 225 0 min 0 lux 0 W/m
28.07.2015 22:40 15,3 C 13,1 C 18,4 C 60 % 1006,9 hPa 0,0 l/m 26,3 km/h (4 Bft) SW22.5 225 0 min 0 lux 0 W/m
28.07.2015 22:45 15,2 C 12,9 C 18,4 C 61 % 1006,9 hPa 0,0 l/m 21,7 km/h (4 Bft) SW22.5 235 0 min 0 lux 0 W/m
28.07.2015 22:50 15,0 C 12,8 C 18,4 C 62 % 1006,9 hPa 0,0 l/m 17,9 km/h (3 Bft) SW45 225 0 min 0 lux 0 W/m
28.07.2015 22:55 15,0 C 12,5 C 18,4 C 62 % 1006,9 hPa 0,0 l/m 27,0 km/h (5 Bft) SW45 225 0 min 0 lux 0 W/m
28.07.2015 23:00 14,9 C 12,3 C 18,4 C 63 % 1006,9 hPa 0,0 l/m 23,1 km/h (4 Bft) SW22.5 230 0 min 6,11 klux 0 W/m
28.07.2015 23:04 14,8 C 12,3 C 18,4 C 64 % 1006,9 hPa 0,0 l/m 26,0 km/h (4 Bft) SW22.5 230 0 min 0 lux 0 W/m
28.07.2015 23:10 14,8 C 12,5 C 18,4 C 64 % 1006,9 hPa 0,0 l/m 19,7 km/h (3 Bft) SW22.5 230 0 min 0 lux 0 W/m
28.07.2015 23:15 14,7 C 12,6 C 18,4 C 64 % 1006,9 hPa 0,0 l/m 28,1 km/h (5 Bft) SW45 230 0 min 0 lux 0 W/m
28.07.2015 23:20 14,7 C 12,7 C 18,4 C 64 % 1006,9 hPa 0,0 l/m 27,8 km/h (5 Bft) SW22.5 225 0 min 0 lux 0 W/m
28.07.2015 23:25 14,7 C 12,6 C 18,4 C 64 % 1006,9 hPa 0,0 l/m 26,4 km/h (4 Bft) SW45 230 0 min 0 lux 0 W/m
28.07.2015 23:30 14,7 C 12,8 C 18,4 C 64 % 1006,9 hPa 0,0 l/m 27,5 km/h (5 Bft) SW45 235 0 min 0 lux 0 W/m
28.07.2015 23:35 14,6 C 12,6 C 18,3 C 64 % 1006,9 hPa 0,0 l/m 26,7 km/h (4 Bft) W-SW22.5 240 0 min 0 lux 0 W/m
28.07.2015 23:39 14,6 C 12,3 C 18,3 C 64 % 1006,9 hPa 0,0 l/m 25,6 km/h (4 Bft) SW22.5 230 0 min 0 lux 0 W/m
28.07.2015 23:45 14,4 C 12,1 C 18,3 C 65 % 1006,9 hPa 0,0 l/m 26,8 km/h (4 Bft) SW45 225 0 min 0 lux 0 W/m
28.07.2015 23:50 14,3 C 12,1 C 18,3 C 65 % 1006,9 hPa 0,0 l/m 24,4 km/h (4 Bft) SW22.5 230 0 min 0 lux 0 W/m
28.07.2015 23:55 14,3 C 12,0 C 18,3 C 65 % 1006,9 hPa 0,0 l/m 25,0 km/h (4 Bft) SW45 225 0 min 0 lux 0 W/m
_ Min-Zeit 05:30 05:34 10:00 21:00 04:10 - 21:55 - - - - -
Minimum _ 12,9 C 10,7 C 18,0 C 54 % 1002,9 hPa - 17,1 km/h (3 Bft) - - - - -
_ Max-Zeit 15:35 13:40 00:05 08:24 23:50 00:05 07:00 - - 10:45 03:00 08:20
Maximum _ 19,5 C 30,8 C 19,3 C 84 % 1006,9 hPa 0,0 l/m 56,4 km/h
O (7 Bft)
- - 6 min 200 klux 1368 W/m
Durchschnitt _ 16,1 C 17,5 C 18,6 C 66 % 1005,1 hPa #0,0 l/m 33,1 km/h (5 Bft) SW - #2:45 h 23,9 klux 229 W/m